Regional Weather Roundup
Issued by NWS Binghamton, NY

Home | Current Version | Previous Version | Text Only | Print | Product List | Glossary On
Versions: 1 2 3 4 5 6 7 8 9 10 11 12 13 14 15 16 17 18 19 20 21 22 23 24 25 26 27 28 29 30 31 32 33 34 35 36 37 38 39 40 41 42 43 44 45 46 47 48 49 50
000
ASUS41 KBGM 260010
RWRBGM
RWRBGM
BINGHAMTON REGIONAL WEATHER ROUNDUP
NATIONAL WEATHER SERVICE BINGHAMTON NY
800 PM EDT MON MAY 25 2015

Note: "fair" indicates few or no clouds below 12,000 feet with no
significant weather and/or obstructions to visibility.

* = Station(s) that does not report precipitation, such as rain,
snow, etc, also no thunder or fog.

!NYZ009-015>018-022>025-036-037-044>046-055>057-062-260100
...CENTRAL NEW YORK...

CITY           SKY/WX    TMP DP  RH WIND       PRES   REMARKS
BINGHAMTON     CLOUDY    75  54  47 SW9G23    30.11F
CORTLAND       FAIR      77  57  50 SW9       30.08F
DANSVILLE      CLOUDY    80  59  48 SE8       30.01F
ELMIRA         CLOUDY    80  58  46 S8        30.05S
ITHACA         CLOUDY    78  57  48 S10       30.07F
MONTICELLO     PTCLDY    75  54  46 S12       30.16S
NORWICH        CLEAR     79  52  38 S8        30.08F
ONEONTA        CLEAR     75  50  41 SW8G16    30.12S
PENN YAN       CLOUDY    79  56  45 S8        30.03F
ROME           CLOUDY    75  60  59 SE3       30.03F
SIDNEY         CLEAR     81  57  44 SW6       30.09S
SYRACUSE       CLOUDY    77  62  59 CALM      30.00S
$$

!PAZ038>040-043-044-047-048-072-260100
...NORTHEAST PENNSYLVANIA...

CITY           SKY/WX    TMP DP  RH WIND       PRES   REMARKS
HAZLETON       PTCLDY    75  55  50 S6        30.21S
SCRANTON       PTCLDY    80  52  37 SW6       30.13S
$$
&&
KEY
WCI = WIND CHILL INDEX
VSB = VISIBILITY
HX  = HEAT INDEX
$$



USA.gov is the U.S. government's official web portal to all federal, state and local government web resources and services.